FW6490 Weather Reports


time (UTC)temp
C
wind
direction
speed
KPH
gust
KPH
rain 1hr
cm
rain 24hr
cm
rain mn
cm
humidity
%
barometer
mb
20260503020901 15 315 4.8 11.3 0.00 0.00 0.00 76 1006.0
20260503020359 15 312 4.8 11.3 0.00 0.00 0.00 75 1006.0
20260503015856 16 296 4.8 11.3 0.00 0.00 0.00 74 1005.9
20260503015355 16 322 4.8 12.9 0.00 0.00 0.00 73 1005.9
20260503014852 16 313 6.4 12.9 0.00 0.00 0.00 72 1005.9
20260503013848 16 332 4.8 12.9 0.00 0.00 0.00 71 1006.0
20260503012842 16 298 4.8 14.5 0.00 0.00 0.00 71 1006.1
20260503012338 17 287 4.8 11.3 0.00 0.00 0.00 70 1006.1
20260503011838 17 278 4.8 11.3 0.00 0.00 0.00 70 1006.1
20260503011333 18 277 4.8 9.7 0.00 0.00 0.00 68 1006.1
20260503010829 18 314 4.8 12.9 0.00 0.00 0.00 68 1006.1
20260503005824 18 295 4.8 12.9 0.00 0.00 0.00 66 1006.1
20260503005320 18 319 4.8 12.9 0.00 0.00 0.00 65 1006.1
20260503004821 18 321 4.8 12.9 0.00 0.00 0.00 65 1006.1
20260503004322 19 350 4.8 12.9 0.00 0.00 0.00 65 1006.2
20260503003820 19 329 4.8 11.3 0.00 0.00 0.00 66 1006.2
20260503001813 20 343 4.8 12.9 0.00 0.00 0.00 63 1006.2
20260503001309 20 327 4.8 11.3 0.00 0.00 0.00 63 1006.1
20260503000812 20 355 4.8 9.7 0.00 0.00 0.00 64 1006.1
20260503000307 20 339 4.8 9.7 0.00 0.00 0.00 64 1006.1
20260502235804 20 330 4.8 9.7 0.00 0.00 0.00 65 1006.2
20260502235259 20 284 4.8 11.3 0.00 0.00 0.00 65 1006.2
20260502234801 20 288 4.8 11.3 0.00 0.00 0.00 63 1006.2
20260502234259 20 22 4.8 11.3 0.00 0.00 0.00 63 1006.4
20260502233256 20 338 4.8 12.9 0.00 0.00 0.00 63 1006.4
20260502232757 20 317 4.8 9.7 0.00 0.00 0.00 63 1006.5
20260502232255 20 355 4.8 12.9 0.00 0.00 0.00 63 1006.5
20260502231800 20 5 4.8 12.9 0.00 0.00 0.00 64 1006.5
20260502231251 20 335 4.8 16.1 0.00 0.00 0.00 64 1006.5
20260502230752 20 335 4.8 16.1 0.00 0.00 0.00 64 1006.5
20260502230249 20 346 4.8 12.9 0.00 0.00 0.00 64 1006.5
20260502225749 20 313 4.8 14.5 0.00 0.00 0.00 65 1006.8
20260502224747 20 270 4.8 12.9 0.00 0.00 0.00 66 1006.8
20260502224248 20 331 4.8 11.3 0.00 0.00 0.00 65 1007.0
20260502223755 20 332 4.8 9.7 0.00 0.00 0.00 64 1007.0
20260502223246 20 332 4.8 9.7 0.00 0.00 0.00 63 1007.0
20260502222744 20 333 4.8 12.9 0.00 0.00 0.00 64 1007.4
20260502222240 20 344 3.2 12.9 0.00 0.00 0.00 65 1007.4
20260502221743 20 284 4.8 11.3 0.00 0.00 0.00 67 1007.4
20260502221237 19 284 4.8 12.9 0.00 0.00 0.00 68 1007.5
20260502220739 20 285 3.2 9.7 0.00 0.00 0.00 66 1007.5
20260502220236 20 286 1.6 8.0 0.00 0.00 0.00 66 1007.5
20260502215742 20 286 3.2 8.0 0.00 0.00 0.00 67 1007.9
20260502215237 19 286 3.2 8.0 0.00 0.00 0.00 69 1007.9
20260502214735 19 284 1.6 8.0 0.00 0.00 0.00 69 1007.9
20260502213732 19 284 1.6 6.4 0.00 0.00 0.00 69 1008.1
20260502213230 19 284 3.2 6.4 0.00 0.00 0.00 69 1008.1
20260502211730 18 259 1.6 8.0 0.00 0.00 0.00 73 1008.3
20260502211226 17 259 1.6 8.0 0.00 0.00 0.00 75 1008.6
20260502210725 17 257 1.6 6.4 0.00 0.00 0.00 76 1008.5
20260502210225 16 257 1.6 4.8 0.00 0.00 0.00 77 1008.5
20260502205720 16 256 1.6 9.7 0.00 0.00 0.00 77 1008.6
20260502205214 17 256 3.2 9.7 0.00 0.00 0.00 76 1008.6
20260502204714 17 355 1.6 6.4 0.00 0.00 0.00 74 1008.6
20260502204213 17 355 1.6 6.4 0.00 0.00 0.00 75 1008.9
20260502203713 17 355 1.6 8.0 0.00 0.00 0.00 75 1008.7
20260502202712 16 32 1.6 9.7 0.00 0.00 0.00 77 1009.1
20260502202205 16 288 1.6 4.8 0.00 0.00 0.00 78 1009.1
20260502201705 16 288 1.6 8.0 0.00 0.00 0.00 79 1009.1
20260502200701 16 288 3.2 8.0 0.00 0.00 0.00 80 1009.2
20260502195656 15 287 3.2 8.0 0.00 0.00 0.00 82 1009.6
20260502195201 15 287 4.8 9.7 0.00 0.00 0.00 82 1009.6
20260502194659 15 287 4.8 11.3 0.00 0.00 0.00 83 1009.6
20260502194151 15 287 3.2 11.3 0.00 0.00 0.00 81 1009.6
20260502193648 15 287 3.2 8.0 0.00 0.00 0.00 81 1009.6
20260502193147 15 287 3.2 8.0 0.00 0.00 0.00 81 1009.6
20260502192145 15 287 3.2 8.0 0.00 0.00 0.00 83 1009.7
20260502191641 15 287 3.2 8.0 0.00 0.00 0.00 83 1009.7
20260502191137 15 287 3.2 8.0 0.00 0.00 0.00 84 1010.0
20260502190638 15 287 3.2 8.0 0.00 0.00 0.00 84 1010.0
20260502190140 15 285 3.2 8.0 0.00 0.00 0.00 83 1010.0
20260502185631 15 332 3.2 4.8 0.00 0.00 0.00 84 1010.1
20260502185128 15 332 1.6 6.4 0.00 0.00 0.00 84 1010.1
20260502184125 15 333 3.2 8.0 0.00 0.00 0.00 84 1010.0
20260502183625 15 331 3.2 8.0 0.00 0.00 0.00 84 1010.0
20260502183123 15 350 3.2 6.4 0.00 0.00 0.00 85 1010.0
20260502182117 14 120 0.0 3.2 0.00 0.00 0.00 85 1010.1
20260502181610 14 121 0.0 0.0 0.00 0.00 0.00 86 1010.1
20260502181110 14 121 0.0 4.8 0.00 0.00 0.00 86 1010.1
20260502180109 14 121 0.0 4.8 0.00 0.00 0.00 86 1010.1
20260502164050 13 95 0.0 4.8 0.00 0.00 0.00 91 1009.5
20260502163546 12 95 0.0 8.0 0.00 0.00 0.00 91 1009.5
20260502163045 12 95 1.6 8.0 0.00 0.00 0.00 92 1009.5
20260502162547 12 223 1.6 6.4 0.00 0.00 0.00 92 1009.5
20260502162042 12 223 1.6 6.4 0.00 0.00 0.00 92 1009.5
20260502161541 12 157 0.0 6.4 0.00 0.00 0.00 92 1009.5
20260502161036 12 157 0.0 8.0 0.00 0.00 0.00 92 1009.3
20260502160540 12 156 0.0 8.0 0.00 0.00 0.00 92 1009.3
20260502152019 12 294 0.0 3.2 0.00 0.00 0.00 93 1009.1
20260502151514 12 295 0.0 1.6 0.00 0.00 0.00 93 1009.1
20260502130416 12 295 0.0 0.0 0.00 0.00 0.00 91 1008.5
20260502123357 12 295 0.0 0.0 0.00 0.00 0.00 91 1008.3
20260502122858 12 295 0.0 3.2 0.00 0.00 0.00 91 1008.2
20260502122356 12 295 0.0 3.2 0.00 0.00 0.00 91 1008.2
20260502121858 12 295 0.0 1.6 0.00 0.00 0.00 91 1008.2
20260502121356 12 295 0.0 1.6 0.00 0.00 0.00 91 1007.9
20260502120350 12 295 0.0 0.0 0.00 0.00 0.00 91 1007.9
20260502115846 12 295 0.0 0.0 0.00 0.00 0.00 91 1007.9
20260502115343 12 295 0.0 0.0 0.00 0.00 0.00 91 1007.9
20260502114845 12 295 0.0 0.0 0.00 0.00 0.00 91 1007.9
20260502113841 12 295 0.0 0.0 0.00 0.00 0.00 91 1007.9
20260502112835 12 295 0.0 3.2 0.00 0.00 0.00 90 1008.0
20260502112331 12 295 0.0 3.2 0.00 0.00 0.00 90 1008.0
20260502111835 12 295 0.0 3.2 0.00 0.00 0.00 90 1008.0
20260502111330 12 295 0.0 3.2 0.00 0.00 0.00 90 1008.0
20260502110826 12 295 0.0 3.2 0.00 0.00 0.00 90 1008.0
20260502110324 12 295 0.0 1.6 0.00 0.00 0.00 91 1008.0
20260502105822 12 295 0.0 1.6 0.00 0.00 0.00 90 1008.1
20260502105319 12 295 0.0 1.6 0.00 0.00 0.00 91 1008.1
20260502104822 12 295 0.0 1.6 0.00 0.00 0.00 90 1008.1
20260502104318 12 295 0.0 3.2 0.00 0.00 0.00 90 1007.9
20260502103808 12 295 0.0 3.2 0.00 0.00 0.00 90 1007.9
20260502103308 12 295 0.0 0.0 0.00 0.00 0.00 90 1007.9
20260502102310 12 295 0.0 3.2 0.00 0.00 0.00 91 1007.9
20260502101814 12 295 0.0 3.2 0.00 0.00 0.00 91 1007.9
20260502101312 12 295 1.6 4.8 0.00 0.00 0.00 90 1007.7
20260502100807 12 295 1.6 4.8 0.00 0.00 0.00 90 1007.7
20260502100302 12 295 0.0 4.8 0.00 0.00 0.00 91 1007.7
20260502091239 12 295 1.6 6.4 0.00 0.00 0.00 90 1008.3
20260502090739 12 295 1.6 6.4 0.00 0.00 0.00 90 1008.3
20260502090237 12 295 0.0 3.2 0.00 0.00 0.00 90 1008.3
20260502071203 12 342 1.6 6.4 0.00 0.00 0.00 89 1009.0
20260502070157 12 343 1.6 4.8 0.00 0.00 0.00 89 1009.0
20260502065654 12 343 1.6 6.4 0.00 0.00 0.00 89 1009.0
20260502065151 12 343 3.2 8.0 0.00 0.00 0.00 89 1009.0
20260502064650 13 344 1.6 8.0 0.00 0.00 0.00 89 1009.0
20260502064150 13 349 3.2 6.4 0.00 0.00 0.00 89 1009.2
20260502063647 13 349 1.6 8.0 0.00 0.00 0.00 89 1009.2
20260502063145 13 351 3.2 8.0 0.00 0.00 0.00 89 1009.3
20260502062143 13 355 3.2 8.0 0.00 0.00 0.00 89 1009.4
20260502061645 13 355 3.2 8.0 0.00 0.00 0.00 89 1009.4
20260502061137 13 355 1.6 6.4 0.00 0.00 0.00 89 1009.6
20260502060636 13 355 1.6 4.8 0.00 0.00 0.00 89 1009.6
20260502060134 13 355 1.6 4.8 0.00 0.00 0.00 89 1009.6
20260502055630 13 355 1.6 8.0 0.00 0.00 0.00 89 1009.6
20260502055131 13 355 1.6 8.0 0.00 0.00 0.00 89 1009.6
20260502054625 13 299 1.6 4.8 0.00 0.00 0.00 89 1009.6
20260502054124 13 299 1.6 6.4 0.00 0.00 0.00 88 1009.6
20260502053624 13 299 3.2 6.4 0.00 0.00 0.00 88 1009.6
20260502053126 13 291 1.6 6.4 0.00 0.00 0.00 88 1009.6
20260502052619 13 290 1.6 6.4 0.00 0.00 0.00 88 1009.6
20260502052116 13 290 1.6 6.4 0.00 0.00 0.00 88 1009.6
20260502051619 13 289 1.6 6.4 0.00 0.00 0.00 88 1009.6
20260502051119 13 284 1.6 9.7 0.00 0.00 0.00 88 1009.6
20260502050612 13 282 1.6 9.7 0.00 0.00 0.00 88 1009.6
20260502050112 13 327 3.2 8.0 0.00 0.00 0.00 88 1009.6
20260502045613 13 327 3.2 8.0 0.00 0.00 0.00 88 1009.6
20260502045110 13 328 3.2 8.0 0.00 0.00 0.00 88 1009.6
20260502044610 13 329 1.6 8.0 0.00 0.00 0.00 87 1009.6
20260502044110 13 330 1.6 8.0 0.00 0.00 0.00 87 1009.6
20260502043608 13 330 1.6 6.4 0.00 0.00 0.00 87 1009.6
20260502043110 13 331 1.6 8.0 0.00 0.00 0.00 87 1009.6
20260502042612 13 331 3.2 8.0 0.00 0.00 0.00 87 1009.6
20260502042108 13 331 3.2 8.0 0.00 0.00 0.00 87 1009.6
20260502041605 13 331 4.8 9.7 0.00 0.00 0.00 86 1009.6
20260502041104 13 331 3.2 9.7 0.00 0.00 0.00 86 1009.4
20260502040107 13 331 1.6 8.0 0.00 0.00 0.00 86 1009.4
20260502035604 13 332 1.6 6.4 0.00 0.00 0.00 86 1009.1
20260502035105 13 332 3.2 8.0 0.00 0.00 0.00 86 1009.1
20260502034604 13 332 3.2 8.0 0.00 0.00 0.00 86 1009.1
20260502034103 13 332 3.2 9.7 0.00 0.00 0.00 86 1009.0
20260502033559 13 332 3.2 9.7 0.00 0.00 0.00 86 1009.0
20260502033059 13 332 3.2 9.7 0.00 0.00 0.00 86 1009.0
20260502032557 13 332 3.2 9.7 0.00 0.00 0.00 85 1008.6
20260502032056 13 333 3.2 9.7 0.00 0.00 0.00 86 1008.6
20260502031556 13 335 3.2 9.7 0.00 0.00 0.00 85 1008.6
20260502031051 13 333 3.2 9.7 0.00 0.00 0.00 85 1008.5
20260502030549 13 334 4.8 9.7 0.00 0.00 0.00 85 1008.5
20260502030046 13 334 4.8 9.7 0.00 0.00 0.00 85 1008.5
20260502025550 13 333 3.2 9.7 0.00 0.00 0.00 85 1008.5
20260502024539 13 329 4.8 9.7 0.00 0.00 0.00 84 1008.5
20260502024038 14 329 3.2 9.7 0.00 0.00 0.00 84 1008.4
20260502023031 14 323 3.2 11.3 0.00 0.00 0.00 83 1008.4
20260502022530 14 323 4.8 11.3 0.00 0.00 0.00 82 1008.2
20260502022030 14 355 3.2 11.3 0.00 0.00 0.00 82 1008.2
20260502021526 14 330 4.8 9.7 0.00 0.00 0.00 81 1008.2